Time,TemperatureF,DewpointF,PressureIn,WindDirection,WindDirectionDegrees,WindSpeedMPH,WindSpeedGustMPH,Humidity,HourlyPrecipIn,Conditions,Clouds,dailyrainin,SolarRadiationWatts/m^2,SoftwareType,DateUTC
2013-03-13 00:22:00,40.0,29.0,-100.00,East,87,6.0,9.0,65,0.00,,,0.00,0.000000,,2013-03-13 06:22:00,
2013-03-13 00:32:00,40.0,29.0,-100.00,East,87,6.0,9.0,65,0.00,,,0.00,0.000000,,2013-03-13 06:32:00,
2013-03-13 00:42:00,40.0,29.0,-100.00,East,87,6.0,9.0,65,0.00,,,0.00,0.000000,,2013-03-13 06:42:00,
2013-03-13 00:52:00,40.0,29.0,-100.00,East,87,6.0,9.0,65,0.00,,,0.00,0.000000,,2013-03-13 06:52:00,
2013-03-13 01:22:00,38.0,27.0,-100.00,East,86,6.0,9.0,64,0.00,,,-99.99,0.000000,,2013-03-13 07:22:00,
2013-03-13 01:32:00,38.0,27.0,-100.00,East,86,6.0,9.0,64,0.00,,,-99.99,0.000000,,2013-03-13 07:32:00,
2013-03-13 01:42:00,38.0,27.0,-100.00,East,86,6.0,9.0,64,0.00,,,-99.99,0.000000,,2013-03-13 07:42:00,
2013-03-13 01:52:00,38.0,27.0,-100.00,East,86,6.0,9.0,64,0.00,,,-99.99,0.000000,,2013-03-13 07:52:00,
2013-03-13 02:22:00,37.0,27.0,-100.00,East,97,4.0,11.0,68,0.00,,,0.00,0.000000,,2013-03-13 08:22:00,
2013-03-13 02:32:00,37.0,27.0,-100.00,East,97,4.0,11.0,68,0.00,,,0.00,0.000000,,2013-03-13 08:32:00,
2013-03-13 02:42:00,37.0,27.0,-100.00,East,97,4.0,11.0,68,0.00,,,0.00,0.000000,,2013-03-13 08:42:00,
2013-03-13 02:52:00,37.0,27.0,-100.00,East,97,4.0,11.0,68,0.00,,,0.00,0.000000,,2013-03-13 08:52:00,
2013-03-13 03:22:00,35.0,26.0,-100.00,East,97,2.0,11.0,68,0.00,,,0.00,0.000000,,2013-03-13 09:22:00,
2013-03-13 03:32:00,35.0,26.0,-100.00,East,97,2.0,11.0,68,0.00,,,0.00,0.000000,,2013-03-13 09:32:00,
2013-03-13 03:42:00,35.0,26.0,-100.00,East,97,2.0,11.0,68,0.00,,,0.00,0.000000,,2013-03-13 09:42:00,
2013-03-13 03:52:00,35.0,26.0,-100.00,East,97,2.0,11.0,68,0.00,,,0.00,0.000000,,2013-03-13 09:52:00,
2013-03-13 04:22:00,36.0,27.0,-100.00,East,97,3.0,7.0,70,0.00,,,0.00,0.000000,,2013-03-13 10:22:00,
2013-03-13 04:32:00,36.0,27.0,-100.00,East,97,3.0,7.0,70,0.00,,,0.00,0.000000,,2013-03-13 10:32:00,
2013-03-13 04:42:00,36.0,27.0,-100.00,East,97,3.0,7.0,70,0.00,,,0.00,0.000000,,2013-03-13 10:42:00,
2013-03-13 04:52:00,36.0,27.0,-100.00,East,97,3.0,7.0,70,0.00,,,0.00,0.000000,,2013-03-13 10:52:00,
2013-03-13 05:12:00,35.0,29.0,-100.00,ENE,57,0.0,7.0,77,0.00,,,0.00,0.000000,,2013-03-13 11:12:00,
2013-03-13 05:22:00,35.0,29.0,-100.00,ENE,57,0.0,7.0,77,0.00,,,0.00,0.000000,,2013-03-13 11:22:00,
2013-03-13 05:32:00,35.0,29.0,-100.00,ENE,57,0.0,7.0,77,0.00,,,0.00,0.000000,,2013-03-13 11:32:00,
2013-03-13 05:42:00,35.0,29.0,-100.00,ENE,57,0.0,7.0,77,0.00,,,0.00,0.000000,,2013-03-13 11:42:00,
2013-03-13 05:52:00,35.0,29.0,-100.00,ENE,57,0.0,7.0,77,0.00,,,0.00,0.000000,,2013-03-13 11:52:00,
2013-03-13 06:22:00,32.0,27.0,-100.00,East,96,1.0,6.0,80,0.00,,,0.00,0.000000,,2013-03-13 12:22:00,
2013-03-13 06:42:00,32.0,27.0,-100.00,East,96,1.0,6.0,80,0.00,,,0.00,0.000000,,2013-03-13 12:42:00,
2013-03-13 06:52:00,32.0,27.0,-100.00,East,96,1.0,6.0,80,0.00,,,0.00,0.000000,,2013-03-13 12:52:00,
2013-03-13 07:22:00,32.0,26.0,-100.00,ESE,115,3.0,6.0,77,0.00,,,0.00,0.000000,,2013-03-13 13:22:00,
2013-03-13 07:32:00,32.0,26.0,-100.00,ESE,115,3.0,6.0,77,0.00,,,0.00,0.000000,,2013-03-13 13:32:00,
2013-03-13 07:42:00,32.0,26.0,-100.00,ESE,115,3.0,6.0,77,0.00,,,0.00,0.000000,,2013-03-13 13:42:00,
2013-03-13 07:52:00,32.0,26.0,-100.00,ESE,115,3.0,6.0,77,0.00,,,0.00,0.000000,,2013-03-13 13:52:00,
2013-03-13 08:21:00,31.0,24.0,-100.00,ESE,112,3.0,9.0,74,0.00,,,0.00,0.000000,,2013-03-13 14:21:00,
2013-03-13 08:42:00,31.0,24.0,-100.00,ESE,112,3.0,9.0,74,0.00,,,0.00,0.000000,,2013-03-13 14:42:00,
2013-03-13 08:52:00,31.0,24.0,-100.00,ESE,112,3.0,9.0,74,0.00,,,0.00,0.000000,,2013-03-13 14:52:00,
2013-03-13 09:22:00,32.0,19.0,-100.00,ESE,116,3.0,6.0,58,0.00,,,0.00,11.000000,,2013-03-13 15:22:00,
2013-03-13 09:32:00,32.0,19.0,-100.00,ESE,116,3.0,6.0,58,0.00,,,0.00,11.000000,,2013-03-13 15:32:00,
2013-03-13 09:42:00,32.0,19.0,-100.00,ESE,116,3.0,6.0,58,0.00,,,0.00,11.000000,,2013-03-13 15:42:00,
2013-03-13 09:52:00,32.0,19.0,-100.00,ESE,116,3.0,6.0,58,0.00,,,0.00,11.000000,,2013-03-13 15:52:00,
2013-03-13 10:22:00,38.0,22.0,-100.00,North,349,3.0,7.0,52,-99.99,,,0.00,144.000000,,2013-03-13 16:22:00,
2013-03-13 10:32:00,38.0,22.0,-100.00,North,349,3.0,7.0,52,-99.99,,,0.00,144.000000,,2013-03-13 16:32:00,
2013-03-13 10:42:00,38.0,22.0,-100.00,North,349,3.0,7.0,52,-99.99,,,0.00,144.000000,,2013-03-13 16:42:00,
2013-03-13 10:52:00,38.0,22.0,-100.00,North,349,3.0,7.0,52,-99.99,,,0.00,144.000000,,2013-03-13 16:52:00,
2013-03-13 12:22:00,58.0,29.0,-100.00,WNW,297,3.0,0.0,33,-99.99,,,0.00,0.000000,,2013-03-13 18:22:00,
2013-03-13 12:33:00,58.0,29.0,-100.00,WNW,297,3.0,0.0,33,-99.99,,,0.00,0.000000,,2013-03-13 18:33:00,
2013-03-13 12:42:00,58.0,29.0,-100.00,WNW,297,3.0,0.0,33,-99.99,,,0.00,0.000000,,2013-03-13 18:42:00,
2013-03-13 12:51:00,58.0,29.0,-100.00,WNW,297,3.0,0.0,33,-99.99,,,0.00,0.000000,,2013-03-13 18:51:00,
2013-03-13 13:22:00,60.0,25.0,-100.00,NW,307,6.0,12.0,26,0.00,,,0.00,1022.000000,,2013-03-13 19:22:00,
2013-03-13 13:32:00,60.0,25.0,-100.00,NW,307,6.0,12.0,26,0.00,,,0.00,1022.000000,,2013-03-13 19:32:00,
2013-03-13 13:42:00,60.0,25.0,-100.00,NW,307,6.0,12.0,26,0.00,,,0.00,1022.000000,,2013-03-13 19:42:00,
2013-03-13 13:52:00,60.0,25.0,-100.00,NW,307,6.0,12.0,26,0.00,,,0.00,1022.000000,,2013-03-13 19:52:00,
2013-03-13 14:22:00,65.0,23.0,-100.00,NW,320,4.0,11.0,20,0.00,,,0.00,1059.000000,,2013-03-13 20:22:00,
2013-03-13 14:32:00,65.0,23.0,-100.00,NW,320,4.0,11.0,20,0.00,,,0.00,1059.000000,,2013-03-13 20:32:00,
2013-03-13 14:42:00,65.0,23.0,-100.00,NW,320,4.0,11.0,20,0.00,,,0.00,1059.000000,,2013-03-13 20:42:00,
2013-03-13 14:52:00,65.0,23.0,-100.00,NW,320,4.0,11.0,20,0.00,,,0.00,1059.000000,,2013-03-13 20:52:00,
2013-03-13 15:22:00,64.0,22.0,-100.00,SSE,157,3.0,13.0,20,0.00,,,0.00,949.000000,,2013-03-13 21:22:00,
2013-03-13 15:32:00,64.0,22.0,-100.00,SSE,157,3.0,13.0,20,0.00,,,0.00,949.000000,,2013-03-13 21:32:00,
2013-03-13 15:42:00,64.0,22.0,-100.00,SSE,157,3.0,13.0,20,0.00,,,0.00,949.000000,,2013-03-13 21:42:00,
2013-03-13 15:51:00,64.0,22.0,-100.00,SSE,157,3.0,13.0,20,0.00,,,0.00,949.000000,,2013-03-13 21:51:00,
2013-03-13 16:22:00,67.0,22.0,-100.00,ESE,119,2.0,9.0,18,0.00,,,-99.99,835.000000,,2013-03-13 22:22:00,
2013-03-13 16:32:00,67.0,22.0,-100.00,ESE,119,2.0,9.0,18,0.00,,,-99.99,835.000000,,2013-03-13 22:32:00,
2013-03-13 16:42:00,67.0,22.0,-100.00,ESE,119,2.0,9.0,18,0.00,,,-99.99,835.000000,,2013-03-13 22:42:00,
2013-03-13 16:52:00,67.0,22.0,-100.00,ESE,119,2.0,9.0,18,0.00,,,-99.99,835.000000,,2013-03-13 22:52:00,
2013-03-13 17:22:00,65.0,22.0,-100.00,NNE,23,3.0,10.0,19,0.00,,,0.00,670.000000,,2013-03-13 23:22:00,
2013-03-13 17:32:00,65.0,22.0,-100.00,NNE,23,3.0,10.0,19,0.00,,,0.00,670.000000,,2013-03-13 23:32:00,
2013-03-13 17:42:00,65.0,22.0,-100.00,NNE,23,3.0,10.0,19,0.00,,,0.00,670.000000,,2013-03-13 23:42:00,
2013-03-13 17:51:00,65.0,22.0,-100.00,NNE,23,3.0,10.0,19,0.00,,,0.00,670.000000,,2013-03-13 23:51:00,
2013-03-13 18:22:00,66.0,19.0,-100.00,NW,307,5.0,9.0,16,0.00,,,0.00,396.000000,,2013-03-14 00:22:00,
2013-03-13 18:32:00,66.0,19.0,-100.00,NW,307,5.0,9.0,16,0.00,,,0.00,396.000000,,2013-03-14 00:32:00,
2013-03-13 18:42:00,66.0,19.0,-100.00,NW,307,5.0,9.0,16,0.00,,,0.00,396.000000,,2013-03-14 00:42:00,
2013-03-13 18:52:00,66.0,19.0,-100.00,NW,307,5.0,9.0,16,0.00,,,0.00,396.000000,,2013-03-14 00:52:00,
2013-03-13 19:22:00,61.0,14.0,-100.00,NW,321,4.0,7.0,16,0.00,,,0.00,125.000000,,2013-03-14 01:22:00,
2013-03-13 19:32:00,61.0,14.0,-100.00,NW,321,4.0,7.0,16,0.00,,,0.00,125.000000,,2013-03-14 01:32:00,
2013-03-13 19:42:00,61.0,14.0,-100.00,NW,321,4.0,7.0,16,0.00,,,0.00,125.000000,,2013-03-14 01:42:00,
2013-03-13 19:52:00,61.0,14.0,-100.00,NW,321,4.0,7.0,16,0.00,,,0.00,125.000000,,2013-03-14 01:52:00,
2013-03-13 20:22:00,54.0,17.0,-100.00,NW,319,7.0,10.0,23,0.00,,,0.00,5.000000,,2013-03-14 02:22:00,
2013-03-13 20:32:00,54.0,17.0,-100.00,NW,319,7.0,10.0,23,0.00,,,0.00,5.000000,,2013-03-14 02:32:00,
2013-03-13 20:42:00,54.0,17.0,-100.00,NW,319,7.0,10.0,23,0.00,,,0.00,5.000000,,2013-03-14 02:42:00,
2013-03-13 20:51:00,54.0,17.0,-100.00,NW,319,7.0,10.0,23,0.00,,,0.00,5.000000,,2013-03-14 02:51:00,
2013-03-13 21:22:00,49.0,19.0,-100.00,ESE,114,4.0,9.0,30,0.00,,,0.00,0.000000,,2013-03-14 03:22:00,
2013-03-13 21:32:00,49.0,19.0,-100.00,ESE,114,4.0,9.0,30,0.00,,,0.00,0.000000,,2013-03-14 03:32:00,
2013-03-13 21:42:00,49.0,19.0,-100.00,ESE,114,4.0,9.0,30,0.00,,,0.00,0.000000,,2013-03-14 03:42:00,
2013-03-13 21:52:00,49.0,19.0,-100.00,ESE,114,4.0,9.0,30,0.00,,,0.00,0.000000,,2013-03-14 03:52:00,
2013-03-13 22:22:00,45.0,24.0,-100.00,ESE,103,6.0,8.0,44,0.00,,,0.00,0.000000,,2013-03-14 04:22:00,
2013-03-13 22:32:00,45.0,24.0,-100.00,ESE,103,6.0,8.0,44,0.00,,,0.00,0.000000,,2013-03-14 04:32:00,
2013-03-13 22:42:00,45.0,24.0,-100.00,ESE,103,6.0,8.0,44,0.00,,,0.00,0.000000,,2013-03-14 04:42:00,
2013-03-13 22:52:00,45.0,24.0,-100.00,ESE,103,6.0,8.0,44,0.00,,,0.00,0.000000,,2013-03-14 04:52:00,
2013-03-13 23:22:00,43.0,24.0,-100.00,East,95,4.0,10.0,46,0.00,,,0.00,0.000000,,2013-03-14 05:22:00,
2013-03-13 23:33:00,43.0,24.0,-100.00,East,95,4.0,10.0,46,0.00,,,0.00,0.000000,,2013-03-14 05:33:00,
2013-03-13 23:42:00,43.0,24.0,-100.00,East,95,4.0,10.0,46,0.00,,,0.00,0.000000,,2013-03-14 05:42:00,
2013-03-13 23:52:00,43.0,24.0,-100.00,East,95,4.0,10.0,46,0.00,,,0.00,0.000000,,2013-03-14 05:52:00,